QPF
0.00 0.00 0.00 0.00 0.00 0.00 0.00 0.00 0.00 0.00 0.00 0.00 0.00 0.00 0.00 0.00 0.00 0.00 0.00 0.00 0.00 0.00 0.00 0.00 0.00 0.00 0.00 0.00 0.00 0.00 0.00 0.00 0.00 0.00 0.00 0.00 0.00 0.00 0.00 0.00 0.00 0.00 0.00 0.03 0.02 0.00 0.00 0.00 0.00
0.00 0.00 0.00 0.00 0.00 0.00 0.00 0.00 0.00 0.00 0.00 0.00 0.00 0.00 0.00 0.00 0.00 0.00 0.00 0.00 0.00 0.00 0.00 0.00 0.00 0.00 0.00 0.00 0.00 0.00 0.00 0.00 0.00 0.00 0.00 0.00 0.00 0.00 0.00 0.00 0.00 0.01 0.01 0.03 0.01 0.02 0.02 0.02 0.00
0.00 0.00 0.00 0.00 0.00 0.00 0.00 0.00 0.00 0.00 0.00 0.00 0.00 0.00 0.00 0.00 0.00 0.00 0.00 0.00 0.00 0.00 0.00 0.00 0.00 0.00 0.00 0.00 0.00 0.00 0.00 0.00 0.00 0.00 0.00 0.00 0.00 0.00 0.00 0.00 0.00 0.01 0.01 0.01 0.05 0.06 0.07 0.01 0.00
0.00 0.00 0.00 0.00 0.00 0.00 0.00 0.00 0.00 0.00 0.00 0.00 0.00 0.00 0.00 0.00 0.00 0.00 0.00 0.00 0.00 0.00 0.00 0.00 0.00 0.00 0.00 0.00 0.00 0.00 0.00 0.00 0.00 0.00 0.00 0.00 0.00 0.00 0.00 0.00 0.01 0.00 0.01 0.01 0.01 0.03 0.02 0.00 0.00
0.00 0.00 0.00 0.00 0.00 0.00 0.00 0.00 0.00 0.00 0.00 0.00 0.00 0.00 0.00 0.00 0.00 0.00 0.00 0.00 0.00 0.00 0.00 0.00 0.00 0.00 0.00 0.00 0.00 0.00 0.00 0.00 0.00 0.00 0.00 0.00 0.00 0.00 0.00 0.00 0.02 0.02 0.01 0.00 0.02 0.00 0.00 0.00 0.00
0.00 0.00 0.00 0.00 0.00 0.00 0.00 0.00 0.00 0.00 0.00 0.00 0.00 0.00 0.00 0.00 0.00 0.00 0.00 0.00 0.00 0.00 0.00 0.00 0.00 0.00 0.00 0.00 0.00 0.00 0.00 0.00 0.00 0.00 0.00 0.00 0.00 0.00 0.00 0.00 0.03 0.02 0.00 0.00 0.00 0.00 0.00 0.00 0.00
0.00 0.00 0.00 0.00 0.00 0.00 0.00 0.00 0.00 0.00 0.00 0.00 0.00 0.00 0.00 0.00 0.00 0.00 0.00 0.00 0.00 0.00 0.00 0.00 0.00 0.00 0.00 0.00 0.00 0.00 0.00 0.00 0.00 0.00 0.00 0.00 0.00 0.00 0.00 0.02 0.03 0.00 0.01 0.00 0.00 0.00 0.00 0.00 0.00
0.00 0.00 0.00 0.00 0.00 0.00 0.00 0.00 0.00 0.00 0.00 0.00 0.00 0.00 0.00 0.00 0.00 0.00 0.00 0.00 0.00 0.00 0.00 0.00 0.00 0.00 0.00 0.00 0.00 0.00 0.00 0.00 0.00 0.00 0.00 0.00 0.00 0.00 0.00 0.00 0.01 0.00 0.01 0.00 0.00 0.00 0.00 0.00 0.00
0.00 0.00 0.00 0.00 0.00 0.00 0.00 0.00 0.00 0.00 0.00 0.00 0.00 0.00 0.00 0.00 0.00 0.00 0.00 0.00 0.00 0.00 0.00 0.01 0.01 0.00 0.00 0.00 0.00 0.00 0.00 0.00 0.00 0.00 0.00 0.00 0.00 0.00 0.00 0.00 0.00 0.01 0.03 0.01 0.00 0.00 0.00 0.00 0.00
0.00 0.00 0.00 0.00 0.00 0.00 0.00 0.00 0.00 0.00 0.00 0.00 0.00 0.00 0.00 0.00 0.00 0.00 0.00 0.00 0.00 0.00 0.00 0.00 0.01 0.04 0.02 0.00 0.00 0.00 0.00 0.00 0.00 0.00 0.00 0.00 0.00 0.00 0.00 0.00 0.00 0.00 0.01 0.00 0.00 0.00 0.00 0.00 0.00
0.00 0.00 0.00 0.00 0.00 0.00 0.00 0.00 0.00 0.00 0.00 0.00 0.00 0.00 0.00 0.00 0.00 0.00 0.00 0.00 0.00 0.00 0.00 0.00 0.00 0.03 0.06 0.01 0.00 0.00 0.00 0.00 0.00 0.00 0.00 0.00 0.00 0.01 0.01 0.01 0.00 0.00 0.00 0.00 0.00 0.00 0.00 0.00 0.01
0.00 0.00 0.00 0.00 0.00 0.00 0.00 0.00 0.00 0.00 0.00 0.00 0.00 0.00 0.00 0.00 0.00 0.00 0.00 0.00 0.00 0.00 0.00 0.00 0.00 0.01 0.01 0.00 0.00 0.00 0.00 0.00 0.00 0.00 0.00 0.00 0.00 0.02 0.02 0.02 0.01 0.00 0.00 0.00 0.00 0.00 0.00 0.00 0.02
0.00 0.00 0.00 0.00 0.00 0.00 0.00 0.00 0.00 0.00 0.00 0.00 0.00 0.00 0.00 0.00 0.00 0.00 0.00 0.00 0.00 0.00 0.00 0.00 0.00 0.00 0.00 0.00 0.00 0.00 0.00 0.00 0.00 0.00 0.00 0.00 0.01 0.03 0.02 0.03 0.01 0.00 0.00 0.00 0.00 0.00 0.00 0.01 0.02
0.00 0.00 0.00 0.00 0.00 0.00 0.00 0.00 0.00 0.00 0.00 0.00 0.00 0.00 0.00 0.00 0.00 0.00 0.00 0.00 0.00 0.00 0.00 0.00 0.00 0.00 0.00 0.00 0.00 0.00 0.00 0.00 0.00 0.00 0.00 0.00 0.01 0.02 0.02 0.01 0.01 0.00 0.00 0.00 0.00 0.00 0.00 0.01 0.00
0.00 0.00 0.00 0.00 0.00 0.00 0.00 0.00 0.00 0.00 0.00 0.00 0.00 0.00 0.00 0.00 0.00 0.00 0.00 0.00 0.00 0.00 0.00 0.00 0.00 0.00 0.00 0.01 0.00 0.00 0.00 0.00 0.00 0.00 0.00 0.00 0.00 0.00 0.01 0.01 0.01 0.00 0.00 0.01 0.00 0.01 0.00 0.01 0.01
0.00 0.00 0.00 0.00 0.00 0.00 0.00 0.00 0.00 0.00 0.00 0.00 0.00 0.00 0.00 0.00 0.00 0.00 0.00 0.00 0.00 0.00 0.00 0.00 0.00 0.00 0.00 0.02 0.02 0.00 0.00 0.00 0.00 0.00 0.00 0.00 0.01 0.00 0.01 0.01 0.00 0.00 0.00 0.00 0.01 0.01 0.01 0.01 0.00
0.00 0.00 0.00 0.00 0.00 0.00 0.00 0.00 0.00 0.00 0.00 0.00 0.00 0.00 0.00 0.00 0.00 0.00 0.00 0.00 0.00 0.00 0.00 0.00 0.00 0.00 0.00 0.04 0.08 0.04 0.02 0.03 0.00 0.00 0.00 0.00 0.00 0.00 0.00 0.01 0.00 0.01 0.00 0.00 0.01 0.01 0.02 0.00 0.00
0.00 0.00 0.00 0.00 0.00 0.00 0.00 0.00 0.00 0.00 0.00 0.00 0.00 0.00 0.00 0.00 0.00 0.00 0.00 0.00 0.00 0.00 0.00 0.00 0.00 0.00 0.00 0.03 0.08 0.08 0.10 0.12 0.02 0.00 0.00 0.00 0.00 0.00 0.00 0.00 0.00 0.00 0.00 0.00 0.01 0.01 0.01 0.00 0.00
0.00 0.00 0.00 0.00 0.00 0.00 0.00 0.00 0.00 0.00 0.00 0.00 0.00 0.00 0.00 0.00 0.00 0.00 0.00 0.00 0.00 0.00 0.00 0.00 0.00 0.00 0.00 0.01 0.06 0.11 0.10 0.11 0.05 0.00 0.00 0.00 0.00 0.00 0.00 0.00 0.00 0.00 0.00 0.00 0.00 0.01 0.01 0.00 0.00
0.00 0.00 0.00 0.00 0.00 0.00 0.00 0.00 0.00 0.00 0.00 0.00 0.00 0.00 0.00 0.00 0.00 0.00 0.00 0.00 0.00 0.00 0.00 0.00 0.00 0.00 0.00 0.00 0.03 0.11 0.17 0.14 0.07 0.00 0.00 0.00 0.00 0.00 0.00 0.00 0.00 0.00 0.00 0.00 0.00 0.00 0.00 0.01 0.00
0.00 0.00 0.00 0.00 0.00 0.00 0.00 0.00 0.00 0.00 0.00 0.00 0.00 0.00 0.00 0.00 0.00 0.00 0.00 0.00 0.00 0.00 0.00 0.00 0.00 0.00 0.00 0.00 0.01 0.07 0.21 0.20 0.15 0.03 0.00 0.00 0.00 0.00 0.00 0.00 0.00 0.00 0.00 0.00 0.00 0.00 0.00 0.00 0.01
0.00 0.00 0.00 0.00 0.00 0.00 0.00 0.00 0.00 0.00 0.00 0.00 0.00 0.00 0.00 0.00 0.00 0.00 0.00 0.00 0.00 0.00 0.00 0.00 0.00 0.00 0.00 0.00 0.01 0.08 0.09 0.10 0.08 0.04 0.00 0.02 0.00 0.00 0.00 0.00 0.00 0.00 0.00 0.00 0.00 0.00 0.00 0.00 0.00
0.00 0.00 0.00 0.00 0.00 0.00 0.00 0.00 0.01 0.00 0.00 0.00 0.00 0.00 0.00 0.00 0.00 0.00 0.00 0.00 0.00 0.00 0.00 0.00 0.00 0.00 0.00 0.00 0.00 0.06 0.09 0.09 0.09 0.04 0.00 0.01 0.00 0.00 0.00 0.00 0.00 0.00 0.00 0.00 0.00 0.00 0.00 0.00 0.00
0.00 0.00 0.00 0.00 0.00 0.00 0.00 0.01 0.01 0.00 0.00 0.00 0.00 0.00 0.00 0.00 0.00 0.00 0.00 0.00 0.00 0.00 0.00 0.00 0.00 0.00 0.00 0.00 0.01 0.07 0.08 0.10 0.08 0.07 0.01 0.00 0.00 0.00 0.00 0.00 0.00 0.00 0.00 0.00 0.00 0.00 0.00 0.00 0.00
0.00 0.00 0.00 0.00 0.00 0.00 0.00 0.00 0.00 0.00 0.00 0.00 0.00 0.00 0.00 0.00 0.00 0.00 0.00 0.00 0.00 0.00 0.00 0.00 0.00 0.00 0.00 0.00 0.01 0.07 0.11 0.20 0.28 0.22 0.08 0.04 0.02 0.01 0.00 0.01 0.00 0.00 0.00 0.00 0.00 0.00 0.00 0.00 0.00
0.00 0.00 0.00 0.00 0.00 0.00 0.00 0.01 0.00 0.00 0.00 0.00 0.00 0.00 0.00 0.00 0.00 0.00 0.00 0.01 0.00 0.00 0.00 0.00 0.01 0.01 0.00 0.00 0.01 0.02 0.07 0.14 0.25 0.21 0.16 0.24 0.20 0.11 0.02 0.02 0.01 0.01 0.01 0.03 0.03 0.02 0.03 0.01 0.01
0.00 0.00 0.00 0.00 0.00 0.00 0.03 0.02 0.00 0.00 0.00 0.00 0.00 0.00 0.00 0.00 0.00 0.00 0.00 0.00 0.00 0.00 0.00 0.00 0.02 0.03 0.02 0.02 0.01 0.02 0.06 0.10 0.15 0.09 0.08 0.11 0.14 0.16 0.11 0.09 0.03 0.03 0.06 0.10 0.09 0.04 0.05 0.03 0.01
0.00 0.00 0.00 0.02 0.02 0.01 0.02 0.02 0.00 0.00 0.00 0.00 0.00 0.00 0.00 0.00 0.00 0.00 0.00 0.00 0.00 0.00 0.00 0.01 0.02 0.04 0.06 0.04 0.04 0.03 0.05 0.08 0.10 0.09 0.03 0.06 0.06 0.11 0.15 0.16 0.16 0.12 0.06 0.06 0.05 0.03 0.04 0.04 0.02
0.00 0.00 0.01 0.01 0.01 0.02 0.02 0.02 0.00 0.00 0.00 0.00 0.00 0.00 0.00 0.00 0.00 0.00 0.00 0.00 0.00 0.00 0.00 0.02 0.05 0.05 0.06 0.06 0.07 0.06 0.07 0.08 0.05 0.07 0.02 0.01 0.02 0.03 0.05 0.08 0.12 0.11 0.07 0.06 0.05 0.03 0.03 0.05 0.05
0.00 0.00 0.00 0.01 0.00 0.01 0.02 0.01 0.00 0.00 0.00 0.00 0.00 0.00 0.00 0.00 0.00 0.00 0.00 0.00 0.00 0.00 0.01 0.02 0.05 0.04 0.02 0.02 0.01 0.02 0.03 0.05 0.02 0.01 0.02 0.00 0.01 0.03 0.04 0.06 0.06 0.05 0.01 0.02 0.02 0.02 0.03 0.05 0.06
MSLP
1011.42 1010.26 1009.54 1008.31 1007.75 1005.48 1003.13 1000.87 999.08 999.47 999.97 1000.98 1001.65 1001.95 1002.01 1001.83 1001.71 1002.52 1003.37 1003.85 1003.99 1004.61 1005.48 1006.14 1006.39 1006.93 1007.27 1007.57 1007.65 1008.04 1008.51 1008.63 1009.16 1009.54 1009.91 1010.42 1010.80 1011.17 1011.61 1011.88 1012.15 1012.31 1012.55 1012.75 1012.99 1013.30 1013.55 1013.86 1013.96
1011.43 1009.74 1008.75 1007.77 1006.44 1004.17 1001.73 1000.06 999.57 1000.25 1000.99 1001.66 1001.81 1001.87 1001.79 1001.79 1002.25 1002.64 1003.44 1004.02 1004.09 1004.27 1005.31 1006.04 1006.93 1007.18 1007.49 1007.71 1007.93 1008.30 1008.44 1008.73 1009.17 1009.59 1009.96 1010.44 1010.97 1011.25 1011.69 1012.04 1012.32 1012.53 1012.70 1012.97 1013.18 1013.39 1013.62 1014.02 1014.22
1011.21 1009.55 1008.69 1006.91 1005.40 1003.82 1001.74 1000.39 1000.58 1001.03 1001.62 1002.12 1002.10 1002.37 1002.25 1002.38 1002.92 1003.66 1004.53 1004.76 1004.55 1004.10 1004.70 1005.97 1007.26 1007.66 1007.85 1008.02 1008.10 1008.50 1008.60 1008.88 1009.21 1009.63 1010.06 1010.45 1010.90 1011.35 1011.72 1012.12 1012.40 1012.69 1012.81 1013.08 1013.27 1013.58 1013.72 1014.12 1014.36
1009.89 1008.92 1008.62 1006.77 1004.75 1002.96 1001.84 1000.63 1000.72 1001.05 1001.46 1001.94 1002.35 1002.75 1002.77 1002.90 1003.50 1004.57 1005.19 1005.46 1004.99 1004.33 1004.61 1006.27 1007.21 1008.06 1008.30 1008.46 1008.50 1008.79 1008.95 1009.14 1009.34 1009.67 1010.08 1010.42 1010.85 1011.22 1011.69 1012.17 1012.51 1012.74 1012.96 1013.17 1013.37 1013.69 1013.89 1014.19 1014.33
1009.47 1008.81 1007.51 1006.23 1004.71 1003.15 1001.89 1001.09 1001.03 1001.65 1002.19 1002.16 1002.57 1003.08 1003.53 1003.51 1004.37 1005.14 1005.49 1005.94 1005.67 1005.43 1005.84 1006.61 1007.13 1007.83 1008.45 1008.54 1008.61 1008.94 1009.17 1009.44 1009.59 1009.79 1010.13 1010.45 1010.80 1011.20 1011.61 1012.11 1012.45 1012.72 1013.01 1013.16 1013.51 1013.82 1014.12 1014.32 1014.44
1009.07 1008.29 1007.44 1005.97 1004.17 1002.65 1001.77 1001.59 1001.85 1002.64 1003.16 1003.30 1003.47 1003.60 1003.95 1004.82 1005.48 1006.13 1006.22 1006.34 1006.44 1006.03 1006.21 1006.91 1007.59 1008.01 1008.33 1008.67 1008.74 1009.05 1009.32 1009.56 1009.76 1009.89 1010.19 1010.47 1010.84 1011.19 1011.59 1011.93 1012.39 1012.79 1013.04 1013.33 1013.57 1013.95 1014.28 1014.52 1014.60
1009.10 1008.43 1007.48 1006.35 1005.18 1003.91 1002.74 1002.05 1002.81 1003.62 1004.32 1004.71 1004.97 1004.81 1004.71 1005.21 1006.16 1006.48 1006.62 1006.61 1006.59 1006.68 1006.46 1006.78 1007.44 1008.04 1008.43 1008.77 1009.00 1009.15 1009.36 1009.71 1009.89 1010.02 1010.27 1010.56 1010.82 1011.13 1011.57 1011.88 1012.32 1012.70 1013.10 1013.35 1013.71 1014.00 1014.30 1014.63 1014.79
1008.98 1008.76 1007.94 1007.03 1005.97 1004.66 1004.46 1004.07 1004.11 1004.94 1005.69 1006.06 1005.95 1005.71 1005.34 1005.02 1006.22 1006.74 1006.95 1006.87 1006.63 1006.62 1006.88 1006.88 1007.13 1007.63 1008.22 1008.69 1008.97 1009.07 1009.39 1009.69 1009.87 1010.09 1010.34 1010.67 1010.99 1011.28 1011.53 1011.95 1012.29 1012.60 1013.02 1013.36 1013.70 1014.05 1014.21 1014.67 1014.85
1009.55 1008.98 1007.58 1006.67 1005.93 1005.39 1005.47 1006.09 1006.04 1006.41 1006.71 1006.81 1006.60 1006.39 1006.09 1005.52 1006.25 1006.89 1007.21 1007.16 1006.87 1006.57 1006.74 1006.84 1007.25 1007.26 1007.72 1008.19 1008.67 1009.11 1009.38 1009.55 1009.81 1010.07 1010.45 1010.78 1010.93 1011.37 1011.69 1011.82 1012.24 1012.55 1013.00 1013.38 1013.68 1014.03 1014.29 1014.52 1014.85
1008.91 1008.22 1007.35 1006.58 1006.49 1006.68 1006.77 1007.02 1007.33 1007.44 1007.36 1007.38 1006.92 1006.74 1006.58 1006.61 1006.85 1007.12 1007.33 1007.37 1007.20 1006.72 1006.50 1006.62 1006.82 1007.27 1007.31 1007.48 1007.86 1008.57 1009.05 1009.36 1009.42 1009.70 1010.17 1010.45 1010.60 1010.93 1011.24 1011.61 1012.12 1012.53 1012.90 1013.30 1013.71 1014.05 1014.25 1014.45 1014.53
1008.37 1007.96 1007.59 1007.29 1007.30 1007.49 1007.75 1007.89 1008.10 1008.17 1007.91 1007.83 1007.54 1007.43 1007.53 1007.52 1007.57 1007.57 1007.51 1007.36 1007.06 1006.81 1006.53 1006.33 1006.66 1006.82 1007.40 1007.33 1007.51 1007.92 1008.30 1008.71 1008.92 1009.10 1009.44 1010.01 1010.21 1010.45 1010.80 1011.44 1012.06 1012.58 1012.93 1013.16 1013.67 1014.07 1014.17 1014.00 1013.96
1008.19 1008.10 1007.86 1007.60 1007.66 1007.98 1008.17 1008.35 1008.28 1008.20 1007.80 1007.81 1007.63 1007.57 1007.58 1007.68 1007.77 1007.71 1007.45 1007.31 1007.10 1006.89 1006.87 1006.49 1006.50 1006.75 1007.03 1007.44 1007.72 1007.63 1007.83 1008.04 1008.23 1008.43 1008.82 1009.37 1009.83 1010.16 1010.44 1011.02 1011.59 1012.01 1012.54 1012.73 1013.07 1013.52 1013.66 1013.58 1013.62
1008.40 1008.11 1007.78 1007.69 1007.93 1008.05 1008.20 1008.12 1007.81 1007.49 1007.19 1007.19 1007.07 1006.99 1007.18 1007.48 1007.72 1007.83 1007.64 1007.45 1007.32 1007.21 1007.19 1007.12 1006.65 1006.74 1006.94 1007.12 1007.27 1007.52 1007.31 1007.46 1007.55 1007.81 1008.14 1008.58 1009.22 1009.58 1010.05 1010.57 1010.96 1011.36 1011.89 1012.21 1012.62 1012.76 1013.13 1013.25 1013.38
1008.64 1008.47 1008.19 1007.86 1007.66 1007.50 1007.43 1007.45 1007.57 1007.23 1006.50 1006.54 1006.73 1006.86 1007.03 1007.27 1007.57 1007.67 1007.73 1007.63 1007.57 1007.43 1007.35 1007.19 1007.00 1006.61 1006.58 1006.87 1006.92 1007.25 1007.18 1006.88 1006.97 1007.00 1007.31 1007.85 1008.34 1008.96 1009.69 1010.08 1010.55 1010.75 1011.18 1011.65 1012.05 1012.36 1012.73 1013.09 1013.23
1008.98 1008.77 1007.88 1006.63 1006.40 1006.73 1007.20 1007.16 1006.74 1006.27 1006.09 1006.33 1006.59 1006.73 1006.99 1007.26 1007.46 1007.58 1007.57 1007.42 1007.31 1007.16 1006.87 1006.86 1006.66 1006.28 1006.16 1006.23 1006.61 1006.48 1006.81 1006.42 1006.75 1006.92 1006.89 1007.30 1008.07 1008.49 1009.04 1009.71 1009.98 1010.46 1010.75 1011.23 1011.64 1012.02 1012.46 1012.98 1013.21
1009.00 1008.27 1006.98 1005.55 1005.55 1005.75 1006.59 1006.49 1006.29 1005.96 1005.97 1006.34 1006.61 1006.97 1007.27 1007.71 1008.20 1008.66 1008.86 1008.71 1008.15 1007.43 1006.52 1006.22 1006.17 1006.07 1005.80 1005.81 1005.56 1005.59 1005.96 1005.91 1006.02 1006.65 1006.99 1007.14 1007.47 1008.13 1008.70 1009.19 1009.43 1009.72 1010.31 1010.93 1011.49 1011.90 1012.34 1012.76 1013.06
1007.16 1006.91 1005.95 1005.29 1005.38 1005.68 1006.09 1005.72 1005.71 1005.88 1006.01 1006.27 1007.14 1008.21 1008.94 1009.50 1009.98 1010.48 1010.60 1010.19 1009.73 1008.97 1007.97 1006.80 1005.52 1005.47 1005.32 1005.26 1005.16 1005.29 1005.37 1005.21 1005.48 1006.07 1006.81 1006.90 1007.03 1007.59 1008.17 1008.52 1009.01 1009.11 1010.03 1010.56 1011.16 1011.63 1012.06 1012.49 1012.75
1007.14 1007.11 1006.58 1006.06 1005.71 1005.59 1005.60 1005.57 1005.76 1005.69 1005.68 1007.05 1008.66 1009.67 1010.35 1011.10 1012.03 1012.46 1012.24 1011.73 1011.00 1010.23 1009.17 1008.10 1007.31 1005.34 1005.06 1004.94 1004.79 1004.61 1004.80 1004.97 1005.03 1005.29 1005.97 1006.31 1006.53 1006.97 1007.55 1007.98 1008.29 1008.77 1009.58 1010.17 1010.65 1011.28 1011.71 1012.05 1012.31
1008.24 1007.93 1007.21 1006.57 1005.99 1005.69 1006.01 1005.58 1005.53 1005.49 1006.37 1008.08 1009.75 1010.74 1011.71 1012.55 1013.12 1013.45 1013.55 1013.31 1012.24 1011.24 1010.30 1009.04 1008.29 1007.07 1005.43 1004.96 1004.67 1004.09 1004.25 1004.49 1004.48 1004.39 1004.93 1005.57 1006.12 1006.33 1007.06 1007.72 1008.16 1008.69 1009.33 1009.99 1010.60 1010.98 1011.36 1011.75 1011.96
1008.50 1008.07 1007.32 1006.45 1005.89 1005.99 1006.05 1005.47 1005.52 1005.29 1007.91 1009.73 1011.27 1012.43 1013.33 1013.84 1014.06 1014.23 1014.26 1014.31 1013.88 1012.75 1011.46 1010.34 1009.18 1008.28 1007.38 1006.37 1004.80 1004.43 1003.95 1003.68 1003.49 1003.51 1003.81 1004.37 1005.10 1005.75 1006.60 1007.39 1007.90 1008.12 1008.95 1009.65 1010.37 1010.81 1011.12 1011.45 1011.59
1008.08 1007.58 1007.19 1006.87 1006.66 1006.63 1006.25 1005.22 1005.47 1007.33 1009.50 1011.04 1012.94 1014.39 1014.77 1015.16 1014.89 1015.06 1015.08 1014.96 1014.49 1013.56 1012.14 1011.18 1010.22 1009.31 1008.14 1007.12 1005.82 1004.87 1004.45 1003.47 1003.21 1002.76 1002.89 1003.18 1004.03 1005.07 1005.78 1006.59 1007.34 1007.88 1008.34 1009.09 1009.75 1010.41 1010.79 1011.11 1011.19
1007.93 1007.63 1007.33 1007.46 1007.25 1006.51 1006.91 1006.25 1006.53 1007.60 1010.53 1012.71 1014.32 1015.25 1016.08 1016.22 1015.99 1016.07 1015.86 1015.41 1014.92 1014.02 1013.06 1011.83 1010.73 1009.65 1008.65 1007.59 1006.26 1005.47 1005.21 1004.33 1002.50 1002.01 1001.73 1002.12 1003.17 1003.91 1005.01 1005.88 1006.85 1007.37 1007.89 1008.34 1009.16 1009.87 1010.29 1010.61 1010.85
1007.91 1008.12 1008.10 1007.87 1007.42 1006.95 1006.28 1006.49 1008.70 1009.93 1012.21 1014.06 1015.58 1016.80 1017.13 1017.01 1017.25 1017.15 1016.95 1016.35 1015.47 1014.72 1013.79 1012.57 1011.05 1009.79 1008.36 1007.61 1006.27 1005.52 1005.02 1004.08 1003.05 1001.31 1000.53 1000.68 1002.30 1003.01 1004.16 1005.32 1006.33 1006.87 1007.45 1007.83 1008.50 1009.31 1009.87 1010.11 1010.32
1008.51 1008.56 1008.03 1007.22 1006.51 1006.35 1006.34 1008.41 1011.35 1013.19 1014.87 1016.16 1016.96 1017.77 1017.85 1018.06 1018.09 1018.12 1017.79 1016.97 1015.87 1014.96 1013.81 1012.56 1011.05 1009.35 1008.07 1007.17 1006.28 1005.31 1004.29 1003.26 1002.57 1000.26 998.99 999.32 1000.61 1001.98 1002.90 1004.20 1005.34 1006.24 1007.13 1007.63 1007.98 1008.58 1009.31 1009.84 1010.09
1008.22 1008.30 1007.73 1006.75 1006.21 1005.99 1006.94 1008.57 1011.79 1014.07 1015.89 1017.39 1018.37 1018.79 1018.94 1018.85 1018.87 1018.65 1018.14 1017.23 1016.21 1015.09 1013.91 1012.68 1011.00 1009.11 1007.83 1007.01 1005.85 1004.44 1003.32 1002.39 1001.12 1000.42 998.33 998.43 999.20 1001.00 1002.02 1003.37 1004.51 1005.41 1006.45 1007.07 1007.75 1008.19 1008.52 1009.12 1009.62
1007.55 1007.94 1008.41 1007.60 1007.51 1007.39 1008.35 1009.67 1013.22 1015.07 1016.91 1018.37 1018.96 1019.43 1019.65 1019.45 1019.42 1019.18 1018.72 1017.78 1016.57 1015.26 1013.87 1012.41 1010.60 1009.08 1007.79 1006.83 1005.75 1003.83 1002.42 1001.41 1001.22 999.35 997.50 997.49 998.82 1000.73 1001.23 1002.76 1003.75 1004.70 1005.75 1006.55 1007.35 1007.59 1008.09 1008.34 1009.17
1007.83 1007.64 1008.21 1008.70 1009.08 1009.14 1009.36 1011.91 1013.89 1015.85 1017.65 1018.67 1019.45 1019.99 1020.23 1020.02 1019.92 1019.61 1019.08 1018.09 1016.66 1015.08 1013.83 1012.49 1011.01 1009.64 1008.22 1007.09 1006.34 1003.48 1002.01 1002.40 1001.27 1000.00 998.39 998.28 1000.45 1001.46 1002.03 1003.07 1003.42 1004.18 1005.13 1005.98 1006.78 1007.16 1007.47 1007.90 1008.21
1008.11 1008.04 1008.46 1009.43 1009.93 1009.53 1009.87 1012.49 1014.63 1016.76 1018.38 1019.49 1020.22 1020.68 1020.77 1020.51 1020.38 1019.93 1019.38 1018.26 1016.95 1015.72 1014.47 1013.30 1011.51 1010.63 1009.01 1007.65 1006.69 1004.29 1002.69 1003.49 1003.40 1002.77 1002.12 1002.02 1002.57 1001.59 1003.68 1003.53 1003.82 1004.01 1004.93 1005.89 1006.58 1007.06 1007.14 1007.40 1007.47
1008.10 1008.30 1009.04 1010.12 1010.95 1011.29 1012.27 1014.66 1016.82 1018.31 1019.57 1020.36 1020.95 1021.28 1021.33 1021.17 1020.86 1020.52 1019.77 1018.76 1017.81 1016.80 1015.47 1014.14 1012.75 1010.79 1009.50 1008.57 1006.43 1004.50 1004.82 1004.65 1004.24 1004.22 1003.80 1002.73 1004.94 1005.54 1004.89 1005.59 1006.06 1006.15 1006.67 1006.51 1006.85 1006.65 1006.91 1006.91 1007.15
1008.03 1008.52 1009.78 1010.99 1011.53 1012.64 1014.32 1015.77 1017.71 1019.05 1020.13 1020.83 1021.29 1021.49 1021.63 1021.69 1021.39 1021.09 1020.29 1019.39 1018.52 1017.93 1016.81 1015.10 1013.11 1011.45 1009.91 1008.37 1005.86 1005.73 1007.44 1007.95 1007.33 1006.14 1006.24 1005.94 1005.67 1005.61 1007.21 1007.13 1007.97 1008.29 1008.45 1008.81 1008.43 1008.14 1007.39 1006.93 1007.06
Thickness
5741 5749 5756 5756 5727 5743 5747 5776 5817 5794 5789 5795 5797 5785 5779 5786 5776 5752 5797 5802 5809 5804 5798 5793 5790 5785 5782 5779 5778 5774 5769 5768 5761 5758 5754 5749 5743 5740 5735 5731 5728 5726 5723 5720 5718 5715 5712 5710 5709
5736 5748 5751 5741 5723 5726 5756 5800 5791 5781 5783 5792 5791 5786 5781 5772 5790 5789 5789 5803 5804 5802 5795 5789 5781 5779 5776 5774 5772 5769 5767 5764 5759 5754 5751 5746 5740 5736 5732 5729 5725 5722 5721 5717 5715 5713 5711 5707 5705
5732 5745 5728 5729 5728 5725 5747 5786 5780 5780 5782 5777 5774 5782 5778 5769 5783 5780 5791 5793 5796 5799 5797 5785 5774 5771 5769 5768 5767 5763 5763 5760 5756 5751 5747 5743 5738 5733 5729 5726 5723 5719 5718 5715 5713 5710 5709 5705 5702
5730 5732 5726 5713 5722 5751 5759 5780 5779 5776 5778 5777 5771 5755 5775 5785 5775 5774 5783 5781 5784 5790 5791 5778 5770 5763 5761 5759 5759 5757 5756 5754 5752 5748 5744 5741 5736 5732 5728 5723 5719 5717 5715 5712 5710 5707 5705 5702 5700
5726 5718 5705 5709 5723 5749 5767 5778 5775 5759 5762 5764 5761 5744 5751 5769 5770 5769 5771 5771 5772 5776 5775 5770 5766 5761 5756 5755 5754 5751 5749 5747 5746 5744 5741 5738 5734 5730 5726 5722 5718 5715 5713 5711 5707 5704 5701 5699 5698
5703 5713 5692 5698 5724 5752 5768 5768 5758 5749 5747 5748 5745 5738 5744 5758 5750 5750 5762 5762 5764 5765 5767 5759 5756 5753 5751 5749 5748 5746 5743 5742 5740 5739 5737 5735 5732 5728 5724 5721 5717 5713 5710 5707 5705 5701 5698 5696 5694
5693 5692 5689 5701 5708 5724 5746 5761 5736 5732 5731 5726 5733 5721 5737 5740 5740 5740 5748 5750 5754 5754 5757 5755 5750 5747 5745 5742 5740 5740 5738 5736 5735 5734 5733 5731 5729 5726 5722 5718 5715 5712 5708 5706 5702 5699 5696 5693 5691
5697 5691 5682 5693 5696 5710 5722 5725 5730 5724 5714 5728 5728 5707 5711 5735 5732 5735 5741 5741 5743 5747 5746 5748 5745 5742 5740 5737 5735 5735 5733 5732 5732 5730 5728 5726 5724 5722 5719 5716 5712 5710 5707 5703 5701 5697 5696 5691 5689
5696 5674 5678 5691 5698 5701 5717 5702 5715 5718 5707 5710 5714 5713 5720 5733 5726 5726 5724 5726 5729 5737 5738 5739 5737 5739 5736 5735 5731 5729 5728 5728 5728 5727 5723 5722 5720 5717 5714 5713 5710 5707 5704 5702 5699 5696 5694 5691 5687
5683 5676 5684 5703 5700 5692 5698 5694 5692 5689 5691 5691 5700 5710 5715 5714 5714 5707 5708 5708 5714 5720 5728 5732 5732 5730 5732 5733 5732 5727 5724 5724 5725 5725 5722 5720 5719 5717 5714 5712 5708 5705 5702 5699 5696 5693 5692 5690 5688
5685 5674 5688 5692 5693 5690 5683 5682 5684 5674 5671 5680 5683 5689 5694 5695 5694 5695 5699 5700 5705 5712 5718 5724 5724 5725 5723 5727 5728 5725 5723 5722 5723 5724 5723 5719 5717 5716 5714 5710 5705 5701 5699 5697 5694 5690 5689 5691 5690
5672 5682 5683 5685 5686 5678 5670 5673 5669 5671 5674 5682 5684 5686 5685 5682 5681 5682 5686 5692 5694 5699 5703 5711 5717 5717 5718 5717 5717 5721 5720 5720 5722 5723 5722 5719 5717 5715 5714 5709 5705 5702 5698 5697 5695 5691 5690 5691 5690
5668 5675 5681 5680 5675 5671 5670 5663 5664 5670 5679 5680 5682 5682 5678 5676 5674 5674 5677 5681 5685 5687 5691 5694 5701 5706 5708 5709 5712 5713 5716 5717 5720 5720 5721 5719 5716 5713 5712 5708 5706 5703 5699 5698 5695 5693 5691 5691 5690
5668 5665 5665 5667 5666 5668 5662 5661 5658 5660 5674 5671 5668 5667 5670 5667 5664 5664 5664 5665 5669 5675 5678 5682 5687 5694 5702 5701 5705 5706 5708 5713 5716 5719 5720 5719 5716 5713 5709 5709 5705 5705 5702 5698 5696 5693 5691 5689 5688
5661 5647 5657 5669 5671 5662 5660 5647 5649 5664 5666 5658 5657 5656 5653 5653 5654 5651 5652 5652 5655 5662 5670 5671 5675 5683 5691 5696 5697 5702 5702 5707 5707 5712 5714 5715 5711 5712 5710 5705 5704 5702 5700 5697 5694 5692 5689 5685 5685
5644 5648 5642 5668 5668 5664 5651 5629 5649 5656 5652 5644 5642 5638 5636 5633 5627 5626 5627 5628 5634 5642 5652 5661 5664 5670 5676 5685 5693 5697 5699 5702 5704 5704 5704 5707 5709 5706 5705 5703 5704 5702 5699 5695 5691 5689 5686 5682 5681
5656 5639 5649 5654 5666 5653 5644 5633 5643 5643 5640 5635 5626 5611 5603 5596 5591 5585 5586 5593 5600 5608 5619 5638 5655 5659 5665 5671 5679 5685 5690 5696 5699 5697 5696 5700 5705 5703 5702 5703 5702 5702 5697 5694 5690 5686 5684 5681 5678
5638 5631 5635 5632 5648 5648 5638 5633 5633 5630 5630 5616 5598 5586 5578 5569 5559 5554 5554 5555 5560 5570 5586 5604 5619 5641 5649 5655 5664 5674 5680 5684 5691 5694 5695 5695 5701 5701 5701 5701 5702 5701 5695 5691 5688 5683 5683 5680 5678
5628 5622 5620 5631 5642 5634 5622 5627 5628 5625 5612 5596 5581 5571 5561 5551 5544 5538 5531 5528 5534 5540 5552 5569 5581 5601 5621 5636 5645 5659 5667 5673 5681 5689 5694 5694 5695 5699 5699 5696 5695 5693 5689 5684 5681 5680 5679 5675 5676
5617 5612 5615 5630 5637 5627 5614 5618 5621 5625 5582 5570 5562 5553 5542 5534 5528 5519 5512 5504 5505 5514 5528 5539 5549 5563 5583 5602 5623 5639 5653 5665 5677 5687 5691 5693 5695 5697 5693 5689 5689 5691 5686 5682 5677 5674 5673 5673 5674
5615 5613 5613 5612 5616 5615 5604 5615 5617 5588 5566 5556 5544 5530 5522 5511 5507 5497 5493 5490 5490 5494 5504 5516 5522 5532 5549 5569 5594 5618 5633 5652 5661 5674 5682 5690 5694 5690 5690 5689 5687 5685 5684 5680 5675 5672 5670 5666 5670
5600 5617 5613 5603 5595 5588 5596 5572 5599 5592 5553 5540 5527 5514 5499 5493 5488 5480 5474 5473 5472 5476 5480 5490 5502 5510 5521 5540 5563 5592 5611 5624 5656 5670 5682 5686 5691 5690 5687 5686 5680 5680 5680 5679 5674 5669 5668 5666 5664
5602 5606 5598 5594 5587 5586 5597 5588 5561 5562 5535 5527 5512 5493 5482 5477 5466 5456 5449 5448 5453 5457 5460 5465 5475 5483 5499 5512 5542 5567 5591 5616 5644 5667 5678 5683 5685 5689 5682 5680 5675 5674 5674 5675 5672 5666 5664 5664 5662
5599 5591 5594 5599 5596 5576 5595 5566 5523 5509 5509 5503 5492 5478 5469 5458 5447 5435 5430 5430 5436 5440 5444 5447 5454 5467 5476 5497 5519 5546 5579 5612 5633 5668 5679 5683 5683 5685 5682 5678 5674 5670 5665 5665 5667 5665 5659 5656 5656
5591 5581 5570 5576 5577 5580 5595 5576 5531 5520 5505 5487 5470 5458 5450 5441 5428 5421 5418 5421 5424 5429 5431 5432 5438 5448 5456 5477 5503 5539 5580 5606 5632 5652 5677 5680 5681 5680 5678 5670 5667 5666 5662 5661 5659 5659 5657 5653 5651
5588 5580 5559 5551 5555 5567 5584 5562 5513 5513 5495 5476 5465 5449 5436 5429 5418 5412 5409 5411 5417 5419 5420 5424 5427 5434 5442 5462 5488 5532 5567 5597 5615 5628 5654 5661 5667 5668 5672 5660 5663 5662 5659 5657 5653 5655 5651 5653 5647
5576 5571 5576 5553 5555 5548 5566 5529 5520 5504 5483 5468 5453 5441 5427 5419 5412 5408 5404 5406 5413 5413 5408 5411 5417 5425 5438 5454 5477 5523 5558 5574 5598 5619 5639 5609 5638 5648 5648 5645 5652 5654 5653 5651 5647 5649 5648 5646 5647
5571 5578 5553 5547 5528 5545 5570 5533 5519 5478 5465 5456 5443 5431 5421 5415 5407 5405 5403 5405 5409 5406 5404 5407 5417 5421 5433 5451 5471 5512 5548 5560 5576 5596 5606 5601 5608 5635 5604 5623 5636 5642 5643 5641 5639 5639 5640 5639 5644
5563 5558 5551 5543 5539 5532 5534 5513 5476 5462 5451 5444 5435 5426 5415 5407 5400 5399 5401 5403 5403 5405 5407 5409 5416 5431 5441 5452 5482 5515 5529 5543 5561 5578 5590 5588 5586 5590 5601 5603 5607 5614 5616 5625 5628 5634 5632 5635 5637
5569 5561 5546 5525 5532 5528 5514 5505 5470 5460 5448 5439 5429 5423 5412 5402 5397 5395 5400 5402 5402 5402 5406 5421 5428 5443 5453 5467 5499 5514 5514 5519 5530 5555 5563 5566 5578 5586 5573 5583 5584 5585 5591 5594 5604 5609 5619 5625 5628